SCP
-0 -0 0 0 -0 -0 -0 -0 -0 -0 -0 -0 -0 -0 -0 0 0 0 0 0 0 0 0 0 0 0 0 0 0 0 0 0 0 -0 -0 -0 -0 -0 -0 -0 -0 -0 -0 -0
0 0 0 -0 -0 -0 -0 -0 -0 0 -0 -0 -0 -0 -0 0 0 0 0 0 0 0 0 0 0 0 0 0 0 0 0 0 -0 -0 -0 -0 -0 -0 -0 -0 -0 -0 0 0
0 0 0 -0 -0 -0 -0 -0 0 0 -0 -0 -0 -0 -0 -0 0 0 0 0 0 0 0 0 0 0 0 0 0 0 0 0 -0 -0 -0 -0 -0 -0 -0 -0 -0 0 0 0
0 0 0 -0 -0 -0 -0 0 0 0 0 -0 -0 -0 -0 -0 0 0 0 0 0 0 0 0 0 0 0 0 0 0 0 0 -0 -0 -0 -0 -0 -0 -0 -0 -0 -0 -0 -0
0 0 0 0 0 0 0 0 0 0 0 -0 -0 -0 -0 0 0 0 0 0 0 0 0 0 0 0 0 0 0 0 0 0 0 -0 -0 -0 -0 -0 -0 -0 -0 -0 -0 -0
0 0 0 0 0 -0 0 0 0 0 0 0 -0 -0 -0 0 0 0 0 0 0 0 0 0 0 0 0 0 0 0 0 0 0 -0 -0 -0 -0 -0 -0 -0 -0 -0 -0 -0
0 0 0 0 -0 -0 -0 0 0 0 0 0 0 -0 -0 0 0 0 0 0 0 0 0 0 0 0 0 0 0 0 0 0 0 0 -0 -0 -0 -0 -0 -0 -0 -0 -0 -0
0 0 0 0 0 -0 -0 -0 0 0 0 0 0 0 -0 0 0 0 0 0 0 0 0 0 0 0 0 0 0 0 0 0 0 -0 -0 -0 -0 -1 -1 -1 -1 -0 -0 -0
0 0 0 0 0 0 -0 -0 -0 -0 0 0 0 0 0 0 0 0 0 0 0 0 0 0 0 0 0 0 0 0 0 0 -0 -0 -0 -0 -1 -1 -1 -1 -1 -1 -0 -0
0 0 0 0 0 0 0 -0 -0 -0 -0 0 0 0 0 0 0 0 0 0 0 0 0 0 0 0 0 0 0 0 0 0 -0 -0 -0 -0 -1 -1 -1 -1 -1 -1 -1 -0
0 0 0 0 0 0 0 -0 -0 -0 -0 -0 0 0 0 0 0 0 0 0 0 0 0 0 0 0 0 0 0 0 0 0 0 -0 -0 -0 -1 -1 -1 -1 -1 -1 -1 -1
0 0 0 0 0 0 0 -0 -0 -0 -0 -0 -0 0 0 0 0 0 0 0 0 0 1 1 1 1 1 0 0 0 0 0 0 -0 -0 -0 -0 -1 -1 -1 -1 -1 -1 -1
0 0 0 0 0 0 0 -0 -0 -0 -0 -0 -0 0 0 0 0 0 0 0 0 0 1 1 1 1 1 1 1 0 0 0 0 0 -0 -0 -0 -1 -1 -1 -1 -1 -1 -1
0 0 0 0 0 0 -0 -0 -0 -0 -0 -0 -0 0 0 0 0 0 0 0 0 0 1 1 1 1 1 1 1 1 1 1 0 0 0 -0 -0 -0 -0 -0 -0 -0 -1 -1
0 0 0 0 0 0 -0 -0 -0 -0 -0 -0 -0 0 0 0 0 0 0 0 0 0 1 1 1 1 1 1 1 1 1 1 1 0 0 -0 -0 -0 -0 -0 -0 -0 -0 -1
0 0 0 0 0 0 0 0 0 0 -0 -0 -0 0 0 0 0 0 0 0 0 0 1 1 1 1 1 1 1 1 1 1 1 1 1 0 0 -0 -0 -0 -0 -0 -0 -0
0 0 0 0 0 0 0 0 0 0 0 0 0 -0 -0 -0 -0 0 0 0 0 0 1 1 1 1 1 2 2 1 1 1 1 1 1 1 1 0 0 0 0 -0 -0 -0
0 0 0 0 0 0 0 0 0 0 0 0 -0 -0 -0 -0 -0 -0 0 0 0 1 1 1 1 2 2 2 2 2 2 2 2 2 2 1 1 1 1 1 0 0 0 -0
0 0 0 0 0 0 0 0 0 0 0 -0 -0 -1 -1 -1 -0 -0 0 0 1 1 1 1 1 2 2 2 2 2 2 2 2 2 2 1 1 1 1 1 1 1 0 0
0 0 0 0 0 0 0 0 0 0 0 -0 -1 -1 -1 -0 -0 0 0 1 1 1 1 1 2 2 2 2 2 2 2 2 2 2 2 2 1 1 1 1 1 1 1 1
0 0 0 0 0 0 0 0 0 0 -0 -1 -1 -1 -1 -0 0 0 1 1 1 2 2 2 2 2 2 3 3 3 2 2 2 2 2 2 1 1 1 1 1 1 1 1
0 0 0 0 0 0 -0 -0 -0 -0 -1 -1 -1 -1 -1 -0 0 0 1 1 2 2 2 2 2 2 2 2 2 3 2 2 2 2 2 2 1 1 1 1 1 1 1 1
-0 -0 0 0 0 -0 -0 -1 -1 -1 -1 -2 -1 -1 -0 0 0 0 1 1 2 2 2 2 2 2 2 2 2 2 2 2 2 2 2 2 1 1 1 1 1 1 1 1
-0 -0 -0 -0 -0 -0 -1 -1 -1 -2 -2 -2 -1 -1 -0 -0 0 1 1 1 2 2 2 2 2 2 2 2 2 2 2 2 2 2 2 2 1 1 1 1 1 1 1 1
-0 -1 -1 -1 -1 -1 -1 -1 -1 -2 -2 -1 -1 -1 -0 -0 0 1 1 1 1 2 2 1 1 1 2 2 2 2 2 2 2 2 2 2 2 1 1 1 1 1 0 0
-0 -1 -1 -1 -1 -1 -1 -1 -1 -2 -1 -1 -1 -0 -0 0 0 1 1 1 1 1 1 1 1 1 1 2 2 2 2 2 2 2 2 2 2 1 1 1 1 0 0 0
Wind_Speed
7 10 9 7 6 3 3 3 3 3 5 7 7 5 7 11 12 11 11 11 11 10 9 9 9 8 7 7 6 6 6 5 4 3 3 3 3 2 2 2 2 2 3 2
9 11 7 5 6 6 6 6 5 5 4 6 5 6 6 10 13 12 11 11 11 11 10 10 9 9 8 8 7 7 7 6 6 4 2 2 2 2 1 1 1 2 2 3
13 6 6 8 9 9 8 6 4 4 5 6 6 7 7 8 11 12 12 12 11 12 12 11 11 10 10 9 9 7 7 6 6 5 4 3 3 3 2 2 2 1 2 2
11 7 8 10 11 10 8 5 5 5 7 4 5 3 6 8 10 12 13 13 12 12 12 11 11 11 10 10 8 8 7 6 6 5 4 4 3 2 1 1 1 1 1 2
10 9 10 11 9 9 4 4 6 6 6 5 6 7 4 7 8 11 13 13 13 13 12 12 11 11 10 9 8 8 7 7 6 6 5 5 4 3 2 1 1 1 1 1
8 7 9 8 6 7 7 7 6 7 8 7 4 7 3 4 5 7 9 11 12 12 12 11 11 10 10 9 9 8 8 7 7 6 6 5 4 3 2 2 1 2 1 1
11 10 7 8 10 10 11 9 7 8 7 5 3 7 3 1 2 4 6 8 11 12 12 12 12 12 11 11 10 9 9 8 7 7 6 5 5 4 4 3 2 1 1 0
15 14 12 11 12 11 13 13 9 7 6 5 6 6 1 1 2 4 5 7 9 11 12 12 12 12 11 11 11 10 9 8 8 7 6 5 4 4 3 2 1 1 0 1
12 12 10 8 7 10 13 13 10 9 9 8 5 4 4 4 5 5 6 7 9 10 11 12 13 13 12 11 11 10 9 8 8 7 6 5 5 3 2 3 2 1 1 1
8 9 10 9 8 5 9 9 8 11 10 10 8 8 5 4 5 5 6 7 8 9 10 11 11 12 11 11 10 10 9 9 8 8 7 6 6 5 4 3 2 1 1 1
10 10 11 12 12 12 10 12 10 10 10 10 9 5 2 2 3 4 5 7 8 10 10 10 10 10 11 11 11 10 10 9 8 8 7 6 6 5 5 4 3 2 1 1
9 10 10 12 6 6 12 13 12 11 10 10 10 3 4 2 3 3 4 5 7 8 9 10 10 10 11 11 11 11 10 10 9 8 8 7 6 6 5 4 4 3 2 2
8 9 11 11 11 9 10 11 12 13 10 10 12 6 5 2 2 2 3 4 6 7 8 9 10 10 10 10 10 11 11 10 10 9 8 8 7 7 5 5 4 4 3 2
7 10 12 13 10 11 12 12 12 13 11 12 12 8 3 2 2 2 3 4 5 7 7 8 9 10 9 9 10 10 10 10 10 10 9 8 7 7 6 6 5 4 3 3
8 11 11 9 6 8 11 13 14 15 14 13 10 9 5 3 2 2 2 4 5 6 7 8 9 9 10 10 9 10 10 10 10 10 9 8 7 7 6 6 5 5 4 4
5 8 10 10 9 10 11 12 13 14 13 13 11 8 4 3 2 2 2 3 5 5 6 8 9 10 10 10 10 10 10 10 10 10 9 9 8 8 7 6 5 5 4 4
6 8 11 12 10 11 15 13 13 12 11 11 11 7 4 4 3 2 1 2 3 4 5 6 8 9 10 10 10 11 11 11 11 10 9 9 9 9 8 7 7 6 5 5
6 8 8 9 9 16 6 4 8 10 9 8 7 5 4 4 3 1 1 2 2 3 4 5 7 8 9 10 10 10 10 11 11 11 10 10 10 9 8 8 7 6 5 5
6 7 8 9 13 12 6 5 6 9 8 5 5 4 3 3 4 4 2 1 2 2 2 3 5 7 9 10 10 10 10 11 11 11 11 10 10 10 9 9 8 7 6 5
7 8 9 10 13 13 6 5 3 7 9 3 3 3 3 3 6 2 4 3 3 2 0 2 4 6 7 9 10 10 10 10 11 11 11 10 10 9 9 9 8 7 6 6
10 9 12 12 12 7 2 3 6 10 3 2 2 2 2 3 4 4 4 3 2 2 1 2 4 6 6 8 9 10 10 10 9 9 9 9 9 9 9 8 8 8 7 6
9 9 10 10 12 7 3 4 5 1 2 0 0 1 2 2 2 3 3 3 2 2 1 2 3 4 5 7 8 8 8 8 8 8 8 9 9 8 8 8 8 7 7 7
6 4 4 5 2 4 2 1 1 1 1 1 2 2 2 2 2 3 3 3 2 2 1 1 3 4 4 5 6 7 7 7 7 8 9 8 8 7 8 9 9 7 7 6
4 2 4 4 3 2 1 0 1 2 2 3 2 2 2 2 3 3 3 3 3 2 1 1 3 4 4 4 5 5 6 7 7 8 8 8 8 8 8 7 7 7 7 6
3 4 5 6 4 3 4 2 2 2 3 3 2 2 2 2 2 2 2 2 2 2 1 1 2 3 4 4 4 5 6 7 7 7 7 7 8 7 7 6 4 5 5 4
6 7 7 5 2 4 2 2 3 3 3 3 3 2 2 2 2 2 2 2 2 2 2 0 2 3 3 4 4 5 6 6 7 7 7 6 6 7 7 6 5 2 1 2
Wind_Direction
198 217 213 204 222 255 202 211 182 152 160 210 222 221 180 184 200 201 198 198 201 202 193 191 194 195 189 188 192 203 209 198 207 214 215 208 205 211 209 219 211 226 240 230
206 218 210 195 199 225 216 216 186 152 163 226 233 234 204 192 205 209 206 203 204 199 192 190 195 195 195 192 193 201 204 203 208 206 220 228 230 224 208 240 191 233 234 238
221 196 180 199 198 214 216 224 202 168 171 210 248 215 192 194 207 211 217 213 208 203 199 193 194 197 196 195 195 200 203 202 209 208 206 205 199 215 205 197 190 223 239 241
222 191 194 207 206 217 210 209 207 189 212 198 242 247 169 187 198 208 213 211 208 203 200 196 193 196 198 196 192 196 197 198 198 202 215 221 229 230 217 221 174 199 225 251
203 193 201 212 207 217 204 175 199 209 233 243 215 265 153 173 202 205 207 208 207 202 198 196 195 193 195 193 189 187 189 195 196 201 207 218 231 228 201 195 179 238 197 251
212 198 217 215 196 193 160 167 183 217 237 237 231 261 228 170 203 199 197 200 202 199 195 194 192 188 190 188 189 186 184 192 193 199 206 215 224 229 226 219 213 217 187 178
203 196 194 195 185 182 199 208 212 217 224 228 185 251 258 126 207 216 193 189 190 191 191 189 188 187 188 188 188 186 184 189 192 195 199 204 211 215 218 229 207 240 229 150
203 198 190 200 211 201 211 225 236 243 242 216 185 243 221 140 208 216 199 186 183 185 188 188 186 186 187 189 188 187 185 187 187 187 190 195 203 214 202 203 238 215 289 53
213 204 175 194 219 221 206 225 246 250 253 256 227 230 219 194 204 195 185 177 179 181 182 183 183 184 184 186 187 186 182 182 181 179 179 185 192 200 180 169 197 182 164 139
230 212 183 179 191 216 241 222 226 242 243 246 234 233 227 191 193 189 184 181 177 176 177 177 180 182 180 180 181 184 180 179 178 177 182 177 179 179 177 182 157 146 149 95
233 219 189 192 209 201 197 211 226 238 248 254 248 227 118 190 209 211 193 182 180 179 176 173 173 175 175 176 175 177 177 177 178 180 179 174 173 173 174 170 169 172 160 139
220 228 211 201 196 247 223 219 213 227 229 245 264 238 115 170 211 206 193 177 179 179 173 172 169 169 172 175 175 176 177 177 178 175 174 175 174 175 177 170 167 161 148 140
201 223 211 197 193 201 217 221 227 235 236 238 249 235 134 163 206 189 186 175 175 175 174 174 171 174 175 174 175 175 178 177 174 171 174 174 176 175 177 168 159 151 145 140
232 227 233 229 215 196 205 211 223 230 234 236 243 255 202 200 226 200 185 183 181 175 177 180 176 176 175 174 174 177 179 175 172 173 174 175 177 174 169 163 157 155 155 149
235 223 229 243 238 220 218 217 216 229 243 251 245 245 254 257 251 223 192 183 183 181 181 183 182 175 174 174 177 179 177 175 173 174 175 173 169 162 160 159 161 160 160 152
232 229 220 224 223 226 229 227 226 231 240 245 251 247 259 270 262 223 198 190 192 193 190 188 184 178 177 176 178 179 176 172 172 175 172 166 163 163 164 163 160 155 151 144
210 216 221 223 213 225 228 225 226 225 233 244 244 247 255 248 250 249 229 219 214 206 198 192 190 186 181 181 179 178 175 170 171 173 170 166 167 167 165 162 157 154 152 146
231 224 224 226 210 232 227 211 227 223 228 242 256 266 264 266 261 235 224 247 247 236 217 197 188 187 182 180 180 178 172 172 173 174 173 172 172 169 166 165 161 158 153 149
226 224 227 226 224 226 194 186 211 220 217 227 251 265 278 284 233 184 85 348 287 268 235 203 195 188 178 178 176 173 174 176 178 178 179 176 173 170 170 170 165 159 158 158
195 223 232 226 237 234 197 163 206 233 216 180 236 256 264 258 242 166 25 340 327 321 252 178 188 180 173 176 173 175 177 180 185 182 180 175 173 174 174 166 162 161 165 166
192 204 224 227 234 234 136 165 195 223 205 133 228 254 257 260 319 355 335 327 341 336 329 164 172 171 170 170 173 179 180 185 184 177 173 172 173 173 169 163 164 166 169 167
215 210 213 225 233 219 118 188 221 346 28 53 314 301 307 319 334 337 338 337 356 14 29 140 157 158 161 169 173 177 183 181 172 169 171 172 173 173 165 165 168 171 170 171
231 264 245 241 241 74 81 88 35 329 329 344 343 348 336 314 321 338 343 343 349 3 36 122 155 148 150 170 178 181 175 175 168 168 172 174 175 173 168 170 171 174 182 190
196 246 241 230 201 182 172 170 293 294 309 315 313 311 308 311 335 344 350 349 345 349 22 136 158 154 153 165 176 178 171 169 168 172 173 174 173 173 172 178 179 185 191 196
248 220 224 232 229 229 211 237 273 303 307 301 307 311 309 319 329 337 341 341 342 344 345 157 167 168 162 162 171 167 162 166 170 173 175 177 177 176 177 180 184 195 200 212
236 239 240 242 231 252 246 262 280 280 283 289 290 291 303 310 307 315 325 338 343 337 342 191 168 168 165 165 164 165 164 166 173 177 177 182 180 178 179 173 173 126 175 166